User: anonymous
Location: Sawmill Trailhead
(33.5800°N, 116.4497°W)
Time: 00:57:14
(UTC-07:00)
Language:

Uosat F - Orbit

View from above orbital plane
View from above orbital plane
View from above satellite
View from above satellite

Ground track
Ground track

The orbit data is extracted from the following two-line orbital elements,

1 21575U 91050B   14262.13061809  .00000226  00000-0  85659-4 0  1111
2 21575 098.7098 239.9328 0007998 050.4256 079.9880 14.40424755217001
Epoch (UTC): 19 September 2014 03:08:05
Eccentricity: 0.0007998
inclination: 98.7098°
perigee height: 751 km
apogee height: 763 km
right ascension of ascending node: 239.9328°
argument of perigee: 50.4256°
revolutions per day: 14.40424755
mean anomaly at epoch: 79.9880°
orbit number at epoch: 21700

The dashed part of the orbit path shows where the satellite is in the earth's shadow,  

DLR